This demonstration page uses our WeatherBlox Daily Observations layout. Learn more.

Left ArrowRight Arrow

39.01783, -85.05884

Hourly Observations for March 28, 2017

Temp ( °F °C ) Dew Point ( °F °C ) Humidity (%) Winds ( mph kmh ) Pressure ( in mb ) Visibility ( mi km ) Precip ( " mm )
12:52 am 00:52 Cloudy 57 13.9 56 13.3 96 96 S 6 9 29.83 1010 9 14 0.00 0.00
1:52 am 01:52 Cloudy 56 13.3 55 12.8 97 97 SSW 7 11 29.82 1010 10 16 0.00 0.00
2:23 am 02:23 Cloudy 55 12.8 54 12.2 96 96 SSW 6 9 29.83 1010 10 16 0.00 0.00
2:52 am 02:52 Cloudy 56 13.3 54 12.2 93 93 SSW 6 9 29.81 1009 10 16 0.00 0.00
3:29 am 03:29 Cloudy 55 12.8 54 12.2 96 96 Calm 29.83 1010 10 16 0.00 0.00
3:52 am 03:52 Cloudy 55 12.8 54 12.2 96 96 SSW 3 6 29.81 1009 9 14 0.00 0.00
4:24 am 04:24 Cloudy 55 13 54 12 94 94 SW 6 9 29.83 1010 8 13 0.00 0.00
4:52 am 04:52 Cloudy 55 12.8 54 12.2 96 96 SW 5 7 29.81 1010 7 11 0.00 0.00
5:15 am 05:15 Cloudy with Mist and Fog 55 12.8 54 12.2 96 96 WSW 5 7 29.83 1010 4 6 0.00 0.00
5:31 am 05:31 Cloudy with Drizzle 55 12.8 55 12.8 100 100 WSW 5 7 29.83 1010 3 4 0.00 0.03
5:52 am 05:52 Cloudy with Light Rain 55 12.8 55 12.8 100 100 WSW 3 6 29.83 1010 2 3 0.01 0.25
6:42 am 06:42 Cloudy with Mist and Fog 55 13 55 13 100 100 W 7 11 29.85 1011 3 4 0.00 0.00
6:52 am 06:52 Cloudy with Drizzle 55 12.8 55 12.8 100 100 W 6 9 29.85 1011 2 3 0.02 0.51
7:00 am 07:00 Cloudy with Drizzle 55 12.8 55 12.8 100 100 W 8 13 29.88 1012 1 1 0.00 0.03
7:20 am 07:20 Cloudy with Mist and Fog 55 13 55 13 100 100 W 9 15 29.88 1012 2 2 0.00 0.00
7:35 am 07:35 Cloudy with Mist and Fog 56 13.3 55 12.8 97 97 WNW 8 13 29.88 1012 3 4 0.00 0.03
7:37 am 07:37 Cloudy with Mist and Fog 56 13.3 55 12.8 97 97 WNW 9 15 29.88 1012 3 5 0.00 0.03
7:52 am 07:52 Cloudy with Mist and Fog 56 13.3 55 12.8 97 97 W 9 15 29.88 1012 3 5 0.00 0.03
8:09 am 08:09 Cloudy with Mist and Fog 56 13.3 55 12.8 97 97 WNW 9 15 29.91 1013 2 3 0.00 0.00
8:50 am 08:50 Cloudy with Mist and Fog 55 13 55 13 100 100 NNW 13 20 29.91 1013 0 0 0.00 0.00
8:52 am 08:52 Cloudy with Mist and Fog 56 13.3 55 12.8 97 97 NNW 15 24 29.89 1012 0 0 0.00 0.00
8:58 am 08:58 Cloudy with Mist and Fog 56 13.3 55 12.8 97 97 NNW 14 22 29.91 1013 3 4 0.00 0.00
9:17 am 09:17 Cloudy with Mist and Fog 55 13 54 12 94 94 N 13 20 29.91 1013 5 8 0.00 0.00
9:52 am 09:52 Cloudy with Mist and Fog 55 12.8 53 11.7 93 93 NNW 13 20 29.93 1014 5 8 0.00 0.00
10:52 am 10:52 Cloudy with Mist and Fog 56 13.3 54 12.2 93 93 NNW 10 17 29.96 1015 6 10 0.00 0.00
11:52 am 11:52 Cloudy with Mist and Fog 57 13.9 53 11.7 87 87 N 13 20 29.96 1015 6 10 0.00 0.00
11:59 am 11:59 Cloudy 57 13.9 53 11.7 87 87 N 10 17 29.97 1015 7 11 0.00 0.00
12:40 pm 12:40 Cloudy 59 15 54 12 82 82 N 14 22 30.00 1016 9 14 0.00 0.00
12:52 pm 12:52 Cloudy 61 16.1 54 12.2 78 78 N 13 20 29.97 1015 10 16 0.00 0.00
1:52 pm 13:52 Cloudy 59 15 52 11.1 78 78 N 15 24 29.99 1016 10 16 0.00 0.00
2:52 pm 14:52 Cloudy 60 15.6 53 11.7 78 78 NNW 13 20 29.99 1016 9 14 0.00 0.00
3:52 pm 15:52 Cloudy 58 14.4 51 10.6 78 78 NNW 12 19 30.00 1016 7 11 0.00 0.00
4:52 pm 16:52 Cloudy with Haze 58 14.4 50 10 75 75 NNW 10 17 30.02 1017 6 10 0.00 0.00
5:52 pm 17:52 Cloudy with Haze 57 13.9 50 10 78 78 N 9 15 30.03 1017 6 10 0.00 0.00
6:52 pm 18:52 Cloudy with Haze 56 13.3 50 10 81 81 N 8 13 30.04 1017 6 10 0.00 0.00
7:52 pm 19:52 Cloudy with Haze 56 13.3 50 10 81 81 NE 7 11 30.06 1018 6 10 0.00 0.00
8:52 pm 20:52 Cloudy 55 12.8 48 8.9 77 77 N 13 20 30.09 1019 9 14 0.00 0.00
9:52 pm 21:52 Cloudy 54 12.2 48 8.9 80 80 N 10 17 30.11 1020 8 13 0.00 0.00
10:52 pm 22:52 Cloudy 53 11.7 48 8.9 83 83 N 5 7 30.12 1020 8 13 0.00 0.00
11:52 pm 23:52 Cloudy 53 11.7 48 8.9 83 83 N 8 13 30.13 1020 9 14 0.00 0.00

Powered by AerisWeather